Temperature
7 6 6 6 7 7 7 7 7 7 8 7 7 7 7 6 6 5 5 5 5 6 7 7 7 7 7 7 7 7 7 7 7 7 7 7 7 7 7 7 7 7 7 7
5 5 6 7 7 7 7 6 6 7 7 7 6 6 6 5 5 5 5 5 5 5 6 6 6 6 6 6 7 7 7 7 7 7 6 7 7 7 6 7 6 7 7 7
5 6 7 7 6 6 6 6 6 6 6 6 6 5 5 5 5 5 5 5 5 5 5 5 5 5 5 6 6 6 6 6 6 6 6 6 6 6 6 6 6 6 6 6
5 6 6 6 6 6 6 6 6 6 5 4 5 4 5 5 4 4 4 4 4 4 4 4 4 4 5 5 5 6 6 6 6 5 5 5 5 6 6 6 6 5 5 5
5 5 5 5 6 6 5 6 6 5 4 4 4 4 4 4 4 4 3 4 4 4 4 4 4 4 4 4 5 5 5 5 5 5 5 5 5 5 5 5 5 5 5 5
4 5 5 5 5 5 5 5 4 3 3 4 4 4 4 3 4 4 3 3 3 3 3 3 3 3 4 4 4 4 4 4 4 4 4 4 4 4 4 4 4 4 4 4
4 4 5 5 5 5 4 3 4 4 3 3 4 3 3 3 3 3 2 2 2 2 2 2 3 3 3 3 3 3 3 4 4 4 4 4 4 4 4 4 4 4 3 4
3 3 4 4 4 3 3 3 3 3 3 3 3 2 2 2 2 2 2 2 2 2 2 2 2 2 2 2 2 2 3 3 3 3 3 3 3 3 3 3 3 3 3 3
2 3 4 4 4 4 3 3 3 2 2 2 2 1 2 2 1 0 0 1 1 1 1 1 1 1 1 1 2 2 2 2 2 2 2 2 2 2 2 2 2 3 3 3
3 3 3 3 3 3 3 2 1 1 2 2 2 1 2 1 1 -0 -1 -1 -0 0 0 1 1 1 1 1 1 1 1 1 1 2 2 2 2 2 2 2 2 2 2 2
3 2 2 2 1 2 2 2 1 1 1 2 1 2 1 1 1 -0 -1 -1 -1 -1 -0 -0 0 0 0 0 0 0 0 1 1 1 1 1 1 1 1 1 1 1 1 1
2 1 0 1 1 2 1 1 1 1 1 0 1 1 1 -0 -1 -1 -1 -1 -1 -1 -1 -1 -0 -0 -0 -0 -0 -0 -0 -0 -0 0 0 0 0 0 0 0 1 1 1 1
1 0 1 2 2 1 1 0 0 -0 -0 -1 -0 1 -0 -2 -2 -2 -2 -2 -1 -1 -1 -1 -1 -1 -1 -1 -1 -1 -1 -1 -1 -1 -0 -0 -0 -0 -0 -0 -0 0 0 0
2 -0 0 1 2 0 -0 0 -0 -0 -0 -1 -0 0 -0 -1 -3 -3 -2 -2 -2 -2 -2 -2 -2 -2 -2 -2 -2 -2 -1 -1 -2 -1 -1 -1 -1 -1 -1 -1 -1 -1 -1 -0
1 -0 -1 -0 0 0 0 0 -0 -1 -1 -1 -0 -1 -0 -2 -3 -3 -3 -3 -3 -3 -3 -3 -3 -3 -3 -2 -2 -2 -2 -2 -2 -2 -2 -2 -2 -2 -2 -1 -1 -1 -1 -1
-1 -1 -1 -1 -0 -1 -1 -1 -1 -1 -1 -2 -1 -1 -2 -2 -2 -3 -3 -4 -4 -4 -4 -4 -3 -3 -3 -3 -3 -3 -3 -2 -3 -3 -3 -2 -2 -2 -2 -2 -2 -2 -2 -2
-2 -2 -1 -1 -1 -1 -1 -2 -1 -2 -2 -2 -2 -2 -3 -4 -4 -4 -4 -4 -4 -4 -4 -4 -4 -4 -4 -4 -3 -3 -3 -3 -3 -3 -3 -3 -3 -3 -3 -3 -3 -3 -3 -2
-2 -2 -2 -2 -2 -2 -1 -2 -2 -2 -3 -4 -4 -4 -4 -4 -4 -4 -3 -4 -4 -4 -4 -5 -5 -4 -4 -4 -4 -4 -4 -3 -3 -4 -3 -3 -3 -3 -3 -3 -3 -3 -3 -3
-3 -2 -3 -3 -3 -2 -2 -3 -4 -3 -3 -5 -4 -4 -5 -5 -5 -5 -4 -4 -4 -5 -5 -5 -5 -5 -5 -5 -4 -4 -4 -4 -4 -4 -4 -4 -4 -4 -4 -4 -4 -4 -4 -4
-4 -3 -3 -3 -3 -2 -2 -4 -4 -3 -4 -5 -5 -5 -6 -6 -6 -5 -5 -5 -5 -5 -5 -5 -5 -5 -5 -5 -5 -5 -5 -5 -4 -4 -4 -4 -5 -5 -5 -5 -5 -5 -5 -4
-4 -4 -4 -4 -4 -3 -4 -5 -4 -3 -3 -5 -5 -5 -6 -6 -6 -5 -5 -5 -6 -6 -6 -6 -6 -6 -6 -6 -5 -5 -5 -5 -5 -5 -5 -5 -5 -5 -5 -5 -5 -5 -5 -5
-4 -5 -5 -5 -4 -3 -5 -6 -5 -5 -5 -5 -5 -6 -6 -6 -6 -6 -6 -6 -6 -6 -6 -6 -7 -6 -6 -6 -6 -6 -6 -6 -6 -6 -6 -6 -6 -6 -6 -6 -6 -6 -6 -6
-5 -5 -5 -5 -4 -5 -6 -6 -5 -5 -6 -6 -6 -6 -6 -6 -7 -7 -7 -7 -7 -7 -7 -7 -7 -7 -7 -7 -7 -7 -7 -7 -6 -7 -7 -7 -7 -7 -7 -6 -6 -6 -6 -6
-7 -7 -7 -7 -7 -7 -6 -6 -5 -5 -6 -6 -6 -6 -6 -7 -7 -7 -7 -7 -8 -8 -8 -8 -8 -8 -8 -8 -7 -7 -7 -7 -7 -7 -7 -7 -7 -7 -7 -7 -7 -7 -7 -7
-6 -7 -7 -7 -8 -8 -7 -6 -6 -6 -6 -6 -7 -7 -7 -7 -7 -8 -8 -8 -8 -8 -8 -8 -8 -8 -8 -8 -8 -8 -8 -8 -8 -8 -8 -8 -8 -8 -8 -8 -8 -8 -7 -7
-8 -8 -7 -6 -7 -8 -7 -6 -6 -7 -7 -7 -7 -8 -8 -8 -8 -8 -8 -8 -9 -9 -9 -9 -9 -9 -9 -9 -8 -8 -8 -8 -8 -8 -8 -9 -9 -9 -9 -9 -8 -8 -8 -8
Wind_Speed
1 3 4 6 6 4 3 4 5 5 2 2 6 7 6 4 4 4 4 3 3 4 2 1 2 3 3 3 4 4 5 5 5 4 3 4 5 4 4 5 7 9 9 10
3 3 6 4 3 3 3 3 4 3 2 2 4 6 4 3 4 5 6 4 3 1 1 1 2 2 3 4 3 4 5 5 5 4 3 2 4 3 4 4 6 8 9 9
5 3 2 3 3 3 4 6 5 4 3 1 1 4 4 3 3 3 3 3 2 2 2 1 1 2 2 3 4 4 4 5 4 4 3 2 2 2 2 3 4 6 9 9
2 2 1 2 3 4 5 4 4 3 1 3 2 4 5 4 3 3 3 2 2 2 2 2 2 1 3 3 3 3 4 5 5 5 5 5 4 4 4 4 4 5 8 9
2 1 1 3 3 3 4 2 2 2 3 2 2 4 6 3 4 4 4 3 2 2 2 2 2 2 1 2 2 2 3 4 4 5 6 6 5 3 2 3 4 4 4 6
2 1 1 2 2 2 1 3 3 3 2 4 6 6 6 5 6 4 3 2 2 1 1 0 0 0 0 0 1 1 2 3 4 5 5 5 6 4 4 5 5 5 3 4
3 2 1 0 1 1 3 4 2 2 1 6 3 4 6 4 3 4 3 3 2 1 1 1 0 0 1 0 1 2 2 3 3 4 5 5 6 6 6 6 6 5 4 4
1 4 3 1 3 3 3 6 5 5 5 4 1 5 5 2 1 1 1 1 0 0 0 1 1 1 1 1 1 2 3 3 3 4 4 4 5 5 4 5 6 6 5 5
4 5 2 1 1 4 4 4 4 3 1 2 5 4 5 1 0 0 1 1 1 1 1 1 1 0 1 1 2 2 2 2 3 3 3 4 4 4 5 4 5 5 5 5
4 4 3 2 2 1 2 5 4 3 3 4 5 5 5 5 4 2 2 2 3 2 2 2 1 1 1 1 1 1 2 3 3 2 3 3 4 4 4 4 6 6 5 6
2 3 3 1 4 5 3 3 3 3 3 4 4 6 4 6 4 3 3 2 2 2 2 2 2 2 1 2 1 1 1 1 1 2 2 2 3 3 4 4 5 5 5 6
2 3 3 6 4 3 5 5 6 5 5 4 4 7 2 2 1 1 2 3 3 3 2 2 2 2 1 1 1 1 2 2 2 2 2 2 2 3 4 4 4 4 5 6
3 3 1 3 2 1 2 4 5 3 2 4 5 7 1 1 2 2 2 3 3 3 2 2 2 2 2 2 2 2 2 2 2 2 2 2 1 2 3 4 4 5 5 5
3 3 6 8 6 4 4 5 5 5 4 6 9 9 6 4 5 6 5 4 3 2 2 3 3 3 3 3 2 3 2 2 2 2 2 2 2 2 3 4 4 4 4 5
3 4 5 7 6 4 6 8 8 9 9 9 9 10 11 6 6 6 5 4 3 3 4 4 4 4 3 3 3 3 3 2 2 2 2 2 2 2 2 2 3 3 4 4
2 3 3 5 5 5 7 9 8 9 8 10 10 12 7 5 3 4 4 3 4 4 5 4 4 4 4 4 4 3 3 3 2 2 2 2 1 1 2 2 3 3 4 4
3 4 3 4 2 3 8 8 8 6 6 8 12 12 4 4 5 6 5 4 4 5 5 5 5 5 5 5 4 4 4 3 2 2 2 2 2 2 2 2 2 3 4 4
5 4 3 2 1 6 7 2 5 7 8 8 7 6 5 6 5 5 4 3 4 4 5 5 5 5 5 4 4 3 3 2 2 2 2 2 2 2 2 2 3 3 3 4
5 5 3 2 4 7 6 3 4 5 7 6 7 6 4 2 3 4 2 2 3 4 4 4 4 5 4 4 3 2 1 1 1 2 2 2 2 3 3 3 3 3 3 3
2 3 4 3 4 7 6 2 1 2 6 3 3 4 3 0 2 5 3 3 4 4 3 3 3 3 3 3 2 1 1 1 2 2 3 2 2 3 4 4 3 3 3 4
2 2 5 6 6 8 5 2 2 4 6 2 2 3 3 4 5 4 3 3 3 3 3 3 2 3 3 2 1 1 1 2 3 2 2 2 2 3 3 3 3 2 2 2
7 6 6 5 6 9 2 3 5 5 2 1 2 3 3 4 4 4 3 3 2 3 3 3 2 3 3 2 0 1 2 3 2 1 1 2 2 2 2 2 2 2 3 3
6 7 5 8 7 2 2 4 3 1 2 3 3 3 3 3 4 4 3 3 2 2 3 2 2 3 3 2 1 1 3 2 1 1 1 2 2 2 1 2 3 2 3 3
3 1 3 4 6 4 4 3 3 2 3 3 3 3 3 4 4 3 3 2 2 3 3 2 2 2 3 3 2 2 2 2 1 1 1 1 1 1 1 2 2 3 3 3
4 3 3 5 5 4 4 5 4 3 3 2 2 3 3 3 3 3 2 2 2 2 2 2 1 2 3 3 3 3 2 1 0 1 1 1 1 1 1 2 1 2 3 4
3 4 5 7 5 5 5 4 3 3 4 4 3 2 2 2 3 2 2 2 2 2 1 2 2 2 2 2 3 3 2 1 0 1 1 1 1 1 1 1 1 2 2 2
Wind_Direction
96 105 201 218 208 203 194 205 236 250 241 212 225 245 250 181 167 180 187 188 193 203 202 147 138 131 127 133 143 150 160 163 153 157 171 172 175 176 168 160 160 160 160 157
60 237 234 211 201 210 216 236 253 281 330 249 251 264 257 198 187 190 191 191 194 182 59 120 118 132 147 163 171 169 168 171 169 174 180 184 173 181 178 164 166 166 164 164
185 239 232 194 203 208 234 216 233 255 332 331 320 285 242 222 178 170 169 179 192 186 196 192 161 165 173 184 190 191 187 175 172 167 148 130 133 137 164 181 183 177 175 171
225 271 201 176 207 191 243 225 220 228 189 262 189 255 252 209 207 201 211 202 209 220 185 183 192 200 202 211 203 191 187 175 171 164 164 163 178 186 199 192 189 183 182 179
250 246 188 212 234 185 223 244 219 209 182 252 222 215 268 191 216 226 225 228 228 212 172 180 196 213 217 200 189 186 188 182 176 174 180 179 189 200 182 170 172 180 184 186
264 274 200 228 249 198 169 42 50 52 97 248 216 199 254 214 208 206 225 231 223 202 155 165 265 246 344 124 178 177 179 194 187 183 186 192 191 186 177 181 185 187 190 187
327 315 314 65 60 39 86 88 40 337 269 246 211 206 243 229 196 187 211 228 228 224 183 174 16 320 294 275 210 212 199 209 200 188 195 202 200 193 192 195 192 188 192 199
242 283 261 223 176 186 188 153 170 207 227 272 279 230 250 245 121 115 169 204 287 289 201 213 239 234 279 251 231 217 211 217 213 202 203 208 206 202 203 202 196 194 199 201
198 253 298 282 288 146 154 190 175 147 218 267 261 273 292 223 246 41 3 10 323 333 343 316 326 330 306 280 242 218 211 219 221 219 210 209 209 211 210 210 200 199 197 195
179 240 273 294 44 7 153 146 110 148 193 248 269 254 238 222 241 265 283 289 304 328 324 323 319 319 316 311 286 255 217 213 221 221 213 220 218 215 210 213 211 200 198 187
169 194 287 328 203 203 151 162 161 174 194 196 248 261 233 204 204 228 253 278 278 283 295 304 309 312 316 333 319 275 272 261 236 224 226 226 222 213 207 213 214 203 199 192
176 147 241 244 247 202 182 186 165 182 228 211 224 264 283 179 184 204 270 300 306 302 310 313 313 320 328 321 314 276 271 261 258 248 230 234 233 209 210 221 220 203 201 197
141 136 272 316 299 305 222 220 199 182 165 200 215 260 319 22 356 337 309 304 309 322 334 334 326 315 299 288 292 277 266 260 260 254 237 234 242 227 228 228 215 199 197 194
139 171 199 218 238 211 235 238 207 182 206 231 233 250 273 291 310 313 311 303 304 311 317 319 310 300 289 277 278 280 283 271 253 240 232 234 241 244 242 229 207 199 195 194
139 214 235 253 260 240 245 246 222 213 217 226 247 250 260 260 264 275 287 298 310 314 312 304 295 290 289 288 292 294 287 279 256 234 234 239 244 258 248 221 208 201 198 202
160 209 227 265 256 252 263 256 238 232 232 239 256 265 266 276 272 276 279 272 276 285 289 295 300 300 294 285 284 291 284 271 238 220 239 247 242 250 242 225 210 202 203 204
188 184 204 255 271 318 266 242 226 226 222 215 238 250 269 282 270 268 263 254 261 270 280 282 284 283 283 279 272 272 269 255 225 223 238 245 245 257 258 240 216 214 209 200
179 177 193 236 119 239 248 197 208 228 243 226 233 257 256 257 276 285 257 237 263 278 284 285 284 285 284 286 281 278 262 230 219 229 237 239 243 253 260 240 226 224 215 206
185 177 184 193 233 265 275 248 197 213 258 230 235 260 281 313 326 294 278 280 273 278 280 277 277 279 281 283 282 270 254 229 231 247 248 242 232 240 245 242 237 228 218 222
149 162 180 195 221 243 250 251 247 151 267 251 226 247 257 41 278 272 289 305 301 300 297 295 301 299 286 282 283 236 238 241 255 262 264 258 238 237 239 240 238 233 220 224
165 193 207 217 234 260 256 245 123 178 256 288 238 244 229 230 246 271 294 301 300 308 311 313 311 302 288 287 274 222 232 255 271 282 281 276 256 246 239 238 229 219 219 219
186 189 205 196 222 253 208 147 185 225 292 288 267 254 248 261 283 292 293 294 306 322 326 324 317 310 311 312 283 277 279 280 282 274 276 279 277 271 247 224 227 212 200 205
203 198 197 200 218 249 175 204 235 224 247 268 263 266 248 259 271 277 285 290 302 307 312 318 311 314 323 318 267 258 290 297 267 255 267 268 275 279 263 218 213 204 201 205
246 219 197 244 256 260 256 264 289 273 258 267 260 260 247 251 258 267 271 286 300 306 306 315 318 322 322 320 312 291 300 309 256 238 264 262 253 264 270 256 226 205 207 210
223 184 210 250 268 297 268 253 260 275 280 279 272 263 250 240 255 259 264 269 277 296 314 314 297 297 308 325 330 327 327 333 270 254 258 266 263 253 267 271 248 231 227 222
197 195 206 239 228 228 253 247 241 249 259 256 261 281 279 243 247 256 251 259 274 298 319 327 330 330 328 337 337 338 338 350 170 280 288 282 278 273 273 276 327 324 285 288
Height
1482 1486 1488 1486 1485 1486 1487 1489 1490 1487 1484 1486 1486 1485 1484 1485 1486 1486 1487 1488 1488 1488 1490 1491 1492 1493 1494 1495 1497 1498 1501 1503 1505 1506 1508 1510 1512 1515 1517 1519 1521 1523 1525 1527
1486 1487 1483 1483 1484 1485 1486 1489 1489 1486 1484 1486 1486 1486 1484 1483 1484 1484 1484 1485 1485 1486 1487 1488 1489 1490 1490 1491 1493 1494 1497 1499 1501 1504 1505 1508 1510 1512 1514 1516 1518 1519 1521 1523
1484 1483 1481 1482 1483 1485 1486 1488 1488 1488 1486 1486 1487 1486 1483 1482 1482 1482 1482 1482 1483 1483 1484 1485 1486 1486 1487 1488 1489 1491 1493 1495 1497 1500 1502 1504 1506 1508 1510 1511 1513 1515 1517 1519
1484 1482 1481 1481 1482 1483 1486 1483 1485 1486 1490 1493 1490 1493 1482 1480 1481 1480 1480 1480 1480 1481 1481 1482 1483 1483 1483 1485 1487 1488 1490 1492 1494 1496 1497 1499 1500 1502 1504 1506 1509 1511 1514 1515
1484 1482 1481 1482 1481 1482 1483 1482 1484 1486 1490 1494 1492 1495 1484 1480 1480 1479 1478 1477 1478 1478 1479 1479 1479 1480 1481 1482 1483 1485 1486 1488 1490 1491 1494 1495 1497 1499 1501 1502 1505 1507 1509 1511
1483 1481 1481 1481 1480 1481 1482 1484 1487 1491 1493 1494 1488 1491 1483 1480 1475 1475 1476 1476 1476 1476 1476 1476 1477 1478 1478 1479 1480 1481 1483 1484 1486 1488 1490 1491 1493 1495 1497 1498 1500 1502 1504 1506
1485 1482 1481 1480 1481 1482 1484 1490 1495 1496 1498 1490 1484 1486 1480 1474 1472 1473 1473 1473 1473 1474 1474 1474 1474 1474 1475 1475 1476 1477 1478 1480 1481 1484 1485 1487 1489 1490 1492 1494 1495 1497 1499 1501
1491 1488 1482 1481 1482 1484 1485 1488 1495 1497 1495 1490 1487 1487 1478 1473 1472 1472 1472 1472 1471 1472 1471 1471 1472 1472 1471 1472 1473 1474 1475 1476 1477 1479 1481 1483 1485 1486 1488 1490 1491 1492 1494 1496
1490 1487 1481 1481 1480 1481 1485 1488 1488 1496 1497 1498 1491 1485 1478 1472 1472 1472 1471 1471 1470 1469 1469 1469 1469 1469 1469 1469 1469 1470 1471 1472 1474 1475 1477 1479 1480 1482 1484 1485 1487 1488 1490 1492
1485 1488 1483 1482 1481 1481 1483 1486 1493 1495 1496 1494 1489 1485 1477 1472 1471 1471 1470 1469 1468 1468 1467 1467 1467 1467 1467 1467 1466 1467 1468 1469 1470 1471 1473 1475 1476 1478 1479 1480 1482 1484 1486 1488
1483 1487 1487 1485 1485 1484 1485 1487 1488 1492 1492 1492 1491 1480 1469 1467 1467 1469 1468 1468 1467 1466 1465 1465 1465 1465 1465 1464 1464 1464 1464 1465 1466 1467 1469 1470 1472 1473 1475 1476 1477 1479 1481 1483
1483 1488 1490 1486 1482 1480 1482 1483 1487 1490 1489 1490 1487 1478 1466 1466 1466 1467 1467 1466 1465 1465 1464 1463 1463 1462 1462 1461 1461 1461 1461 1461 1462 1464 1465 1466 1467 1468 1470 1471 1472 1474 1476 1478
1482 1488 1489 1484 1485 1484 1483 1482 1482 1485 1487 1490 1487 1476 1467 1466 1465 1465 1465 1464 1463 1463 1462 1461 1460 1459 1459 1458 1458 1458 1458 1459 1459 1460 1461 1462 1463 1463 1464 1466 1467 1469 1471 1473
1479 1485 1486 1482 1477 1479 1481 1479 1479 1482 1484 1484 1476 1470 1467 1466 1466 1465 1463 1462 1461 1461 1460 1458 1457 1457 1456 1456 1455 1455 1455 1455 1456 1457 1457 1458 1458 1459 1460 1461 1463 1464 1466 1468
1478 1483 1482 1479 1476 1476 1476 1474 1475 1476 1475 1476 1469 1468 1463 1464 1465 1463 1462 1461 1459 1458 1457 1456 1455 1454 1454 1453 1452 1452 1452 1452 1453 1453 1453 1454 1454 1455 1456 1457 1458 1460 1462 1463
1478 1480 1480 1479 1475 1475 1474 1471 1471 1471 1471 1471 1468 1465 1460 1462 1461 1460 1459 1458 1457 1456 1455 1454 1452 1451 1450 1449 1449 1448 1448 1448 1449 1449 1449 1450 1451 1452 1452 1453 1454 1455 1457 1459
1478 1480 1480 1477 1474 1474 1472 1467 1467 1467 1466 1466 1464 1460 1459 1459 1458 1457 1456 1455 1454 1453 1452 1451 1449 1448 1447 1446 1445 1444 1444 1444 1445 1445 1445 1446 1447 1447 1448 1449 1450 1451 1452 1454
1475 1478 1479 1479 1479 1478 1463 1461 1461 1461 1460 1460 1458 1456 1456 1455 1454 1453 1453 1452 1451 1450 1449 1447 1446 1445 1444 1443 1442 1441 1441 1441 1441 1441 1441 1442 1442 1443 1444 1445 1446 1447 1448 1449
1470 1473 1477 1479 1479 1470 1463 1460 1460 1461 1458 1456 1455 1454 1454 1453 1452 1450 1450 1449 1449 1447 1446 1445 1443 1442 1440 1439 1438 1438 1437 1437 1437 1437 1438 1438 1439 1440 1440 1441 1442 1443 1444 1444
1469 1470 1474 1476 1475 1467 1457 1457 1456 1458 1457 1452 1451 1451 1452 1452 1453 1449 1447 1446 1445 1444 1443 1441 1440 1438 1437 1435 1434 1433 1433 1433 1433 1434 1434 1434 1435 1436 1436 1436 1437 1438 1439 1440
1472 1473 1473 1473 1472 1463 1457 1456 1456 1460 1453 1450 1449 1449 1450 1450 1449 1447 1445 1444 1443 1441 1439 1438 1436 1435 1433 1431 1431 1430 1430 1430 1430 1431 1431 1431 1432 1432 1432 1433 1433 1434 1435 1436
1467 1470 1472 1471 1470 1461 1454 1455 1455 1452 1449 1448 1447 1447 1447 1446 1445 1444 1443 1441 1439 1438 1436 1435 1433 1432 1430 1429 1428 1427 1427 1427 1428 1428 1428 1428 1428 1428 1428 1429 1429 1431 1431 1432
1462 1460 1459 1460 1457 1452 1451 1450 1449 1448 1447 1446 1445 1445 1444 1443 1442 1441 1440 1438 1437 1435 1434 1432 1431 1429 1428 1427 1426 1425 1424 1424 1424 1424 1424 1425 1425 1425 1425 1425 1426 1427 1428 1428
1458 1456 1457 1456 1451 1450 1448 1447 1447 1446 1445 1444 1443 1443 1442 1440 1439 1438 1437 1436 1434 1433 1432 1430 1429 1427 1425 1424 1423 1422 1422 1421 1421 1421 1421 1422 1422 1422 1422 1422 1423 1423 1424 1424
1453 1454 1454 1453 1449 1447 1445 1445 1444 1443 1443 1442 1441 1440 1439 1438 1436 1436 1434 1433 1432 1431 1430 1428 1427 1425 1424 1423 1421 1420 1420 1419 1419 1418 1419 1419 1419 1419 1418 1419 1419 1420 1421 1422
1450 1451 1451 1447 1445 1445 1442 1442 1442 1441 1440 1439 1438 1436 1436 1435 1434 1433 1432 1431 1430 1429 1427 1426 1425 1423 1422 1421 1419 1419 1418 1417 1416 1416 1416 1416 1416 1416 1416 1416 1416 1417 1418 1418